Location: Unspecified
(0.0000°N, 0.0000°E)
Time: 02:57:07
(UTC+00:00)

deb Midas III - Visible Passes

Search period start: 05 October 2024 00:00
Search period end: 15 October 2024 00:00
Orbit: 3348 x 3571 km, 91.1° (Epoch: 30 September)

Date Brightness Start Highest point End Pass type
(mag) Time Alt. Az. Time Alt. Az. Time Alt. Az.
05 Oct ? 23:09:42 19° S 23:09:42 19° S 23:12:49 10° S visible
06 Oct ? 23:26:34 18° SSW 23:26:34 18° SSW 23:29:32 10° SSW visible
07 Oct ? 21:01:32 12° SE 21:01:32 12° SE 21:02:31 10° SSE visible
07 Oct ? 23:43:25 17° SSW 23:43:25 17° SSW 23:45:57 10° SSW visible
08 Oct ? 21:18:23 16° SSE 21:18:23 16° SSE 21:21:04 10° SSE visible
09 Oct ? 00:00:15 14° SSW 00:00:15 14° SSW 00:02:03 10° SSW visible
09 Oct ? 21:35:13 20° SSE 21:35:13 20° SSE 21:39:07 10° SSE visible
10 Oct ? 00:17:04 11° SW 00:17:04 11° SW 00:17:43 10° SW visible
10 Oct ? 21:52:01 23° SSE 21:52:01 23° SSE 21:56:50 10° S visible
11 Oct?00:33:53SW00:33:53SW00:01:13NNWvisible
11 Oct ? 22:08:49 26° S 22:08:49 26° S 22:14:13 10° S visible
12 Oct ? 22:25:36 28° S 22:25:36 28° S 22:31:22 10° S visible
13 Oct ? 22:42:22 28° SSW 22:42:22 28° SSW 22:48:15 10° S visible
14 Oct ? 20:17:15 13° SE 20:17:15 13° SE 20:19:22 10° SE visible
14 Oct ? 22:59:07 27° SSW 22:59:07 27° SSW 23:04:53 10° SSW visible
